Frederick, MD

5:00 PM EST on November 13, 2019 (GMT -0500)
Frederick Municipal

Weather History for KFDK - July, 2019

Change the Weather History Date:

Wednesday, July 31, 2019

  Actual Average (WUND) Record (WUND)
Temperature  
Mean Temperature 76 °F -  
Max Temperature 82 °F - - (-1)
Min Temperature 69 °F - - (-1)
Cooling Degree Days 10    
Growing Degree Days 26 (Base 50)    
Moisture  
Dew Point 69 °F    
Average Humidity 85    
Maximum Humidity 94    
Minimum Humidity 58    
Precipitation  
Precipitation 0.00 in - - ()
Sea Level Pressure  
Sea Level Pressure 30.06 in    
Wind  
Wind Speed 1 mph (South)    
Max Wind Speed 6 mph    
Max Gust Speed -    
Visibility 10 miles    
Events Rain    
Averages and records for this station are not official NWS values.
T = Trace of Precipitation, MM = Missing Value Source: NWS Daily Summary

Daily Weather History Graph

Daily Weather History Graph

Search for Another Location

Airport or City:

Astronomy

Jul. 31, 2019 Rise Set
Actual Time 6:08 AM EDT 8:23 PM EDT
Civil Twilight 5:38 AM EDT 8:53 PM EDT
Nautical Twilight 5:01 AM EDT 9:29 PM EDT
Astronomical Twilight 4:20 AM EDT 10:10 PM EDT
Moon 5:19 AM EDT (7/31) 8:20 PM EDT (7/31)
Length of Visible Light 15h 15m
Length of Day
14h 14m
Waning Crescent, 0% of the Moon is Illuminated
Jul 31
Waning Crescent
Jul 31
New
Aug 7
First Quarter
Aug 15
Full
Aug 23
Last Quarter

Hourly Weather History & Observations

Time (EDT) Temp. Heat Index Dew Point Humidity Pressure Visibility Wind Dir Wind Speed Gust Speed Precip Events Conditions
12:05 AM 73.4 °F - 69.8 °F 88% 30.06 in 10.0 mi Calm Calm - N/A   Mostly Cloudy
12:25 AM 73.4 °F - 69.8 °F 88% 30.06 in 10.0 mi South 4.6 mph - N/A   Scattered Clouds
12:45 AM 73.4 °F - 69.8 °F 88% 30.05 in 10.0 mi SSE 3.5 mph - N/A   Scattered Clouds
1:05 AM 73.4 °F - 69.8 °F 88% 30.05 in 10.0 mi Calm Calm - N/A   Scattered Clouds
1:25 AM 71.6 °F - 69.8 °F 94% 30.05 in 10.0 mi South 4.6 mph - N/A   Clear
1:45 AM 71.6 °F - 69.8 °F 94% 30.05 in 10.0 mi SSE 3.5 mph - N/A   Clear
2:05 AM 71.6 °F - 68.0 °F 88% 30.05 in 10.0 mi South 4.6 mph - N/A   Clear
2:25 AM 71.6 °F - 68.0 °F 88% 30.05 in 10.0 mi Calm Calm - N/A   Clear
2:45 AM 71.6 °F - 68.0 °F 88% 30.05 in 10.0 mi Calm Calm - N/A   Clear
3:05 AM 71.6 °F - 68.0 °F 88% 30.04 in 10.0 mi Calm Calm - N/A   Clear
3:20 AM 69.8 °F - 68.0 °F 94% 30.04 in 10.0 mi Calm Calm - N/A   Clear
3:45 AM 69.8 °F - 68.0 °F 94% 30.04 in 10.0 mi Calm Calm - N/A   Clear
4:05 AM 69.8 °F - 68.0 °F 94% 30.04 in 10.0 mi Calm Calm - N/A   Clear
4:25 AM 69.8 °F - 68.0 °F 94% 30.04 in 10.0 mi Calm Calm - N/A   Clear
4:45 AM 69.8 °F - 68.0 °F 94% 30.05 in 10.0 mi Calm Calm - N/A   Clear
5:05 AM 69.8 °F - 68.0 °F 94% 30.05 in 10.0 mi Calm Calm - N/A   Clear
5:25 AM 71.6 °F - 68.0 °F 88% 30.04 in 10.0 mi ESE 3.5 mph - N/A   Clear
5:45 AM 71.6 °F - 68.0 °F 88% 30.05 in 10.0 mi Calm Calm - N/A   Clear
6:05 AM 69.8 °F - 68.0 °F 94% 30.05 in 10.0 mi Calm Calm - N/A   Clear
6:25 AM 71.6 °F - 68.0 °F 88% 30.05 in 10.0 mi Calm Calm - N/A   Clear
6:45 AM 71.6 °F - 68.0 °F 88% 30.05 in 10.0 mi Calm Calm - N/A   Clear
6:47 AM 71.6 °F - 69.8 °F 94% 30.06 in 10.0 mi Calm Calm - N/A   Clear
7:05 AM 71.6 °F - 68.0 °F 88% 30.06 in 10.0 mi Calm Calm - N/A   Clear
7:47 AM 73.4 °F - 69.8 °F 88% 30.08 in 10.0 mi Calm Calm - N/A   Clear
8:47 AM 78.8 °F - 69.8 °F 74% 30.08 in 10.0 mi Calm Calm - N/A   Mostly Cloudy
9:47 AM 78.8 °F - 68.0 °F 69% 30.09 in 10.0 mi Calm Calm - N/A   Mostly Cloudy
10:47 AM 80.6 °F 83.9 °F 69.8 °F 70% 30.10 in 10.0 mi Calm Calm - N/A   Mostly Cloudy
11:47 AM 80.6 °F 82.7 °F 66.2 °F 61% 30.10 in 10.0 mi Calm Calm - N/A   Mostly Cloudy
12:47 PM 82.4 °F 84.6 °F 66.2 °F 58% 30.11 in 10.0 mi Calm Calm - N/A   Mostly Cloudy
1:47 PM 80.6 °F 83.9 °F 69.8 °F 70% 30.10 in 10.0 mi Calm Calm - N/A   Overcast
2:50 PM 82.4 °F 85.4 °F 68.0 °F 62% 30.08 in 10.0 mi Calm Calm - N/A   Overcast
3:47 PM 82.4 °F 84.6 °F 66.2 °F 58% 30.06 in 10.0 mi Calm Calm - N/A Rain Light Rain
4:47 PM 80.6 °F 83.2 °F 68.0 °F 65% 30.05 in 10.0 mi West 4.6 mph - N/A   Overcast
6:47 PM 78.8 °F - 68.0 °F 69% 30.06 in 10.0 mi West 5.8 mph - N/A   Clear
7:47 PM 78.8 °F - 69.8 °F 74% 30.06 in 10.0 mi SSE 3.5 mph - N/A   Clear
8:47 PM 75.2 °F - 69.8 °F 83% 30.06 in 10.0 mi Calm Calm - N/A   Clear
9:25 PM 73.4 °F - 69.8 °F 88% 30.07 in 10.0 mi Calm Calm - N/A   Clear
9:45 PM 73.4 °F - 69.8 °F 88% 30.07 in 10.0 mi Calm Calm - N/A   Clear
10:05 PM 71.6 °F - 69.8 °F 94% 30.09 in 10.0 mi Calm Calm - N/A   Clear
10:25 PM 71.6 °F - 69.8 °F 94% 30.09 in 10.0 mi Calm Calm - N/A   Clear
10:45 PM 71.6 °F - 69.8 °F 94% 30.08 in 10.0 mi South 3.5 mph - N/A   Clear
11:05 PM 71.6 °F - 69.8 °F 94% 30.08 in 10.0 mi South 3.5 mph - N/A   Clear
11:25 PM 71.6 °F - 69.8 °F 94% 30.09 in 10.0 mi Calm Calm - N/A   Clear
11:45 PM 71.6 °F - 69.8 °F 94% 30.09 in 10.0 mi SW 4.6 mph - N/A   Clear